Flag for U.S.A. Weather past 2 weeks in Vallejo, California, U.S.A.

Now
62 °F

Scattered clouds.


Feels Like: 62 °F
Forecast: 51 / 62 °F
Wind: 14 mph from West

Location: Napa County Airport

Current Time: Dec 21, 2014 at 5:00:10 PM

Latest Report: Dec 21, 2014 at 3:54 PM


Visibility: 10 mi

Pressure: 30.22 "Hg

Humidity: 90%

Dew point: 59 °F

Location of VallejoLocation

Historic Weather in Vallejo — Graph

°F

Vallejo temperature yesterday

Maximum temperature yesterday: 58 °F (at 2:54 PM)
Minimum temperature yesterday: 50 °F (at 5:54 AM)
Average temperature yesterday: 55 °F

Past Weeks' High & Low Weather Summary

 TemperatureHumidityPressure
High64 °F (Dec 6, 3:54 PM)100% (Dec 6, 6:54 PM)30.27 "Hg (Dec 6, 6:54 PM)
Low39 °F (Dec 13, 5:54 AM)67% (Dec 16, 2:54 PM)29.47 "Hg (Dec 11, 6:54 AM)
Average53 °F94%30.02 "Hg
* Reported Dec 6 3:54 PM — Dec 21 3:54 PM, Vallejo, Weather by CustomWeather, © 2014

Note: Actual official high and low records may vary slightly from our data, if they occured in-between our weather recording intervals... More about our weather records

Advertising

Vallejo weather history for previous 24 hours

 ConditionsComfort  
Time TempWeatherWind HumidityBarometerVisibility
3:54 PM
Dec 21
62 °FScattered clouds.14 mph90%30.22 "Hg10 mi
2:54 PM64 °FScattered clouds.13 mph87%30.21 "Hg10 mi
1:54 PM64 °FBroken clouds.16 mph87%30.22 "Hg10 mi
12:54 PM63 °FMostly cloudy.15 mph90%30.23 "Hg10 mi
11:54 AM63 °FMostly cloudy.10 mph90%30.25 "Hg10 mi
10:54 AM61 °FOvercast.9 mph93%30.26 "Hg10 mi
9:54 AM60 °FPartly sunny.9 mph96%30.27 "Hg10 mi
8:54 AM58 °FMostly cloudy.6 mph100%30.27 "Hg9 mi
7:54 AM57 °FLow clouds.6 mph100%30.24 "Hg10 mi
6:54 AM57 °FLow clouds.3 mph100%30.23 "Hg10 mi
6:04 AM57 °FLow clouds.5 mph100%30.27 "Hg10 mi
5:54 AM57 °FLow clouds.6 mph100%30.23 "Hg9 mi
4:54 AM57 °FFog.6 mph100%30.22 "Hg6 mi
3:54 AM57 °FFog.6 mph100%30.22 "Hg2 mi
2:54 AM57 °FFog.6 mph100%30.23 "Hg3 mi
1:54 AM57 °FFog.6 mph100%30.22 "Hg2 mi
12:54 AM57 °FFog.8 mph100%30.21 "Hg6 mi
11:54 PM
Dec 20
57 °FLow clouds.8 mph96%30.20 "Hg10 mi
10:54 PM57 °FLow clouds.5 mph93%30.21 "Hg10 mi
9:54 PM57 °FOvercast.6 mph93%30.21 "Hg10 mi
8:54 PM57 °FOvercast.5 mph90%30.21 "Hg10 mi
7:54 PM57 °FOvercast.6 mph87%30.19 "Hg10 mi
6:54 PM57 °FOvercast.3 mph90%30.19 "Hg10 mi
5:54 PM57 °FMostly cloudy.5 mph90%30.18 "Hg10 mi
Weather by CustomWeather, © 2014

See weather overviewHow to use our weather pages